Tracking 19149 objects as of 22-Apr-2018
HD Live streaming from Space Station
objects crossing your sky now

FENGYUN 1C DEB

Track FENGYUN 1C DEB now!
10-day predictions


NORAD ID: 32096
Int'l Code: 1999-025CQN
Perigee: 850.2 km
Apogee: 1,063.2 km
Inclination: 99.3 °
Period: 104.0 minutes
Semi major axis: 7327 km
RCS: 0.0045 m2 (small)
Launch date: May 10, 1999
Source: People's Republic of China (PRC)
Launch site: Taiyaun Space Center, China (TSC)

Note: This is SATELLITE DEBRIS
aabbcc
Your satellite tracking list
Your tracking list is empty




NASA's NSSDC Master Catalog

Two Line Element Set (TLE):
1 32096U 99025CQN 18110.57325989 +.00000063 +00000-0 +87981-4 0  9990
2 32096 099.3060 152.6356 0145348 075.0846 286.6352 13.84049863541718
Source of the keplerian elements: AFSPC